Showing default

KUIPER-00192, 68575

Orbit data source: Space-Track

KUIPER-00192, 68575 is a payload satellite owned by Kuiper Systems (US) in LEO that was launched on Sat, 04 Apr 2026 UTC via an ATLAS V 551 launch vehicle from the Air Force Eastern Test Range (AFETR). Payload-class satellites include a variety of spacecraft equipped with specific instruments for various scientific and technological missions. These include communications satellites like Starlink; space stations such as the ISS; scientific satellites like the Hubble; Earth observation satellites from companies like Planet Labs, Umbra, and HawkEye 360; GPS; miniature CubeSats for education and research; and military/defense satellites.

Loading next visibility...
Identifier
68575, 2026-072C
Orbit
LEO
Country
Flag of USUS
Related business
Manufacturer
Kuiper Systems
Mission
Operational spacecraft
Bus & Motor
KUIPER, Unknown motor
Mass
~490 kg wet, ~490 kg dry
Launch date (UTC)
2026-04-04 (2 months ago)
Launch vehicle
ATLAS V 551
Launch site
Air Force Eastern Test Range (AFETR)
Object type
Payload
Rocket body
Debris
Shape & HBR
Unknown shape, 3.4 m
Radar Cross Section
Large (>1 m²)

Expand to show TLE details & history
Last TLE update: 20 hours ago

TLE from 20 hours ago
0 KUIPER-00192
1 68575U 26072C   26149.79181898  .00006671  00000-0  90187-3 0  9999
2 68575  51.9017 274.4904 0000465  60.6775 299.4234 14.79996248  8439
Epoch: 2026-05-29T19:00Z
TLE epoch observation values (Epoch: 2026-05-29T19:00:13.159Z)
Latitude
-0.00002°
Longitude
102.11843°
Altitude
629.923 km
Speed
7.545 km/s
True Right ascension
18h 17m 57s
True Declination
0° 00' 00"
Sunlit
Object was in full shadow at epoch
Visualization orbit readout
Latitude
Unknown
Longitude
Unknown
Altitude
Unknown
Speed
Unknown
Apparent Right ascension
Unknown
Apparent Declination
Unknown
Sunlit
N/A
Visualization observer readout
Local Sidereal Time
00:53:52
Azimuth
Unknown
Elevation
Unknown
Doppler factor
Unknown
Orbital elements
Apogee altitude
630.113 km
Perigee altitude
629.461 km
Semi-major axis
7,007.924 km
Eccentricity
0.00005
Inclination
51.9017°
RAAN
274.4904°
Arg. of periapsis
60.6775°
True anomaly
299.41876°
Mean anomaly
299.4234°
Eccentric anomaly
299.42108°
Mean motion
3.69964 °/min
Orbital period
97.31 mins
BSTAR
0.00090187
Loading maneuver chart data...
Computing Atmospheric mass density...
Loading historical data...
Loading historical data...
Loading historical data...
Loading historical data...
Loading historical data...
Loading historical data...
Loading historical data...

Documentation

Showing up to 5 results
|